Aérodrome :
LOGIN :

S'inscrire | Disclaimer

   EN    FR    IT 

 










Légende :    VFR   VFR Marginal   IFR   IFR Intensif   IFR Très Intensif
Visi : 
Plafond : 
>= 8 km
>= 3000ft
5 à 8 km
1000 à 3000 ft
1500m à 5 km
500 à 1000 ft
800 à 1500m
200 à 500 ft
< 800m
< 200 ft
Symboles :   Orages  Brouillard  Fortes neiges  Fortes précipitations  Vent > 20 kt
SIGMETs :   Divers  Orages  Givrage  Turbulence  Onde Orograph.  Cendres Volcan.






- Altitude de l'aérodrome : 545 ft
- Code IATA : PZY


LZPP - Piešťany

DERNIER METAR :
  • 271700Z 09006KT CAVOK 12/07 Q1010

METARs EXPIRÉS :
  • 271630Z 12005KT CAVOK 14/06 Q1010
  • 271600Z 15006KT CAVOK 15/06 Q1010
  • 271530Z 18008KT CAVOK 16/05 Q1010
  • 271500Z 14009KT 090V180 CAVOK 16/04 Q1009
  • 271430Z 18004KT 130V220 CAVOK 15/05 Q1009

TAF TAF LZPP
Valide du 27 à 15h jusqu'au 28 à 00h UTC


271400Z 2715/2800 15006KT 9999 SCT033
BECMG 2721/2723 9999 BKN040



MET'MAP, la Météo Aéronautique d'un coup d'oeil ! - Copyright ORBIFLY Décembre 2007 - Disclaimer

ORBIFLY MET'MAP TEAM :

Programmation & Développement : Alexandra Zaïnal
Sur une idée originale de : Baudouin d'Aumeries
Assistance à la programmation : Marc-Olivier Méhu
Soutien technique & logistique : Manuel Goepfert

Contact : metmap@orbifly.com




SOURCES & CREDITS :

   NOAA